Other Public Products
Issued by NWS Grand Forks, ND

Home | Current Version | Previous Version | Text Only | Print | Product List | Glossary On
Versions: 1 2 3 4 5 6 7 8 9 10 11 12 13 14 15 16 17 18 19 20 21 22 23 24 25 26 27 28 29 30 31 32 33 34 35 36 37 38 39 40 41 42 43 44 45 46 47 48 49 50
000
FPUS83 KFGF 260731
OPUFGF
PRAIRIE TO PINES WEATHER ROUNDUP
NATIONAL WEATHER SERVICE EASTERN NORTH DAKOTA/GRAND FORKS ND
100 AM CST WED NOV 26 2014

 **SATELLITE DATA USED TO AUGMENT SKY COVER AT AUTOMATED STATIONS**
 *****  WEATHER ACROSS EASTERN NORTH DAKOTA  *****

CITY           SKY/WX    TMP DP  RH WIND       PRES   REMARKS
GRAND FORKS    PTCLDY     9   3  78 N15       30.20R WCI  -8
GRAND FORKS AF CLOUDY     7   3  85 N15       30.20R WCI -11
GRAND CITY NWS   N/A      9 N/A N/A N9          N/A  WCI  -5
BUXTON           N/A     11  10  95 N16         N/A  WCI  -6
DEVILS LAKE    PTCLDY     5  -8  56 N12       30.18R WCI -11
FARGO          CLOUDY    18  13  80 N22       30.10R WCI   1
WAHPETON ARPT  CLOUDY    23  18  80 N13       30.05R WCI  11
$$

 *****  WEATHER ACROSS CENTRAL AND WESTERN NORTH DAKOTA  *****

CITY           SKY/WX    TMP DP  RH WIND       PRES   REMARKS
JAMESTOWN      LGT SNOW  12   7  80 N20       30.11R WCI  -6
BISMARCK       CLOUDY    14   9  80 N10       30.18R WCI   1
MINOT          CLOUDY     4   0  83 N7        30.21R WCI  -8
MINOT AFB      CLOUDY     4   1  86 N6        30.22R WCI  -6
GARRISON         N/A      8   4  83 N3        30.18R
WILLISTON      CLOUDY    16  10  77 CALM      30.22R
DICKINSON      CLOUDY    19  15  84 N10       30.13R WCI   7
HETTINGER      CLOUDY    21  17  84 N12       30.14R WCI   9
$$

 *****  OTHER OBSERVATIONS NORTHEAST NORTH DAKOTA  *****

CITY           SKY/WX    TMP DP  RH WIND       PRES   REMARKS
WALHALLA         N/A      1  -2  85 N10G22    30.28R WCI -14
LANGDON        CLOUDY     5   0  78 N14       30.18R WCI -12
CAVALIER       PTSUNNY    1  -2  85 N14       30.26R WCI -17
GRAFTON        FAIR       5   0  78 N17       30.23R WCI -14
CANDO          CLOUDY     5   0  78 N13       30.22R WCI -12
FORT TOTTEN    NOT AVBL
ROLLA          FLURRIES   1  -2  85 N14       30.21R WCI -17
RUGBY          FAIR       0  -2  92 NW3       30.22R
 ***** THE ABOVE OBSERVATIONS ARE NON NWS ARE NOT QUALITY
        CONTROLLED AND MAY MIS-REPORT RAIN FOR SNOW...
$$

 *****  OTHER OBSERVATIONS SOUTHEAST NORTH DAKOTA *****

CITY           SKY/WX    TMP DP  RH WIND       PRES   REMARKS
COOPERSTOWN    NOT AVBL
VALLEY CITY    FLURRIES  12  10  92 N18G24    30.10R WCI  -5
OAKES          LGT SNOW  16  16 100 N23G33    30.04R WCI  -2
GWINNER        CLOUDY    19  18  93 N23       30.06R WCI   2
BUFFALO        NOT AVBL
WYNDMERE         N/A     21  19  93 N15         N/A  WCI   8
 ***** THE ABOVE OBSERVATIONS ARE NON NWS ARE NOT QUALITY
       CONTROLLED AND MAY MIS-REPORT RAIN FOR SNOW...
$$

  *****  WEATHER ACROSS NORTHERN MINNESOTA  *****

CITY           SKY/WX    TMP DP  RH WIND       PRES   REMARKS
FLAG ISLAND    CLOUDY     9   3  78 N16       30.15R WCI  -9
WARROAD        CLOUDY    10   7  85 N13       30.16R WCI  -5
ROSEAU         CLOUDY    10   3  72 N13       30.17R WCI  -5
HALLOCK        MOCLDY     5   0  78 N14       30.22R WCI -12
THF RVR FALLS  CLOUDY    12   9  85 N13       30.14R WCI  -3
HALSTAD          N/A     14  10  85 N20         N/A  WCI  -3
FOSSTON        LGT SNOW  16  10  79 N15       30.09R WCI   1
BAUDETTE       LGT SNOW  13   8  81 N9        30.11R WCI   1
WASKISH        LGT SNOW  14  12  92 CALM      30.10R
CROOKSTON      FLURRIES  12  10  92 N10       30.17R WCI  -1
$$
  *****  WEATHER ACROSS CENTRAL AND WEST MINNESOTA  *****

CITY           SKY/WX    TMP DP  RH WIND       PRES   REMARKS
BEMIDJI        FLURRIES  18  14  87 N7        30.05R WCI   8
PARK RAPIDS    FLURRIES  17  12  80 E3        30.01S
WADENA         CLOUDY    18  10  73 NE6       30.01R WCI   9
DETROIT LAKES  MIX PCPN  19  18  93 NE6       30.04R WCI  11
MOORHEAD       MIX PCPN  19  18  93 N21       30.10R WCI   3
FERGUS FALLS   CLOUDY    19  12  73 NE8       30.05R HAZE    WCI   9
ELBOW LAKE       N/A     21  14  75 NE9       29.99R WCI  11
MORRIS MN      CLOUDY    25  18  74 E12       29.96R WCI  14
STAPLES        CLOUDY    18  10  73 NE5       30.02R WCI  11
WHEATON        FLURRIES  21  18  86 N12       30.02R WCI   9
$$
  *****  WEATHER ELSEWHERE ACROSS MINNESOTA  *****

CITY           SKY/WX    TMP DP  RH WIND       PRES   REMARKS
DULUTH         CLOUDY    19  11  70 W3        30.04S
INTRNTL FALLS  LGT SNOW  15  10  80 N5        30.09R WCI   8
ELY            CLOUDY     7   5  92 CALM      30.05R
CLOQUET        CLOUDY    19  12  73 CALM      30.05S
BRAINERD       CLOUDY    18  12  77 NE7       30.03S WCI   9
HIBBING        CLOUDY    19   8  62 S3        30.04S
ALEXANDRIA     CLOUDY    20  13  74 NE9       29.98R WCI   9
SAINT CLOUD    CLOUDY    24  15  68 E7        30.00F WCI  16
MINNEAPOLIS    CLOUDY    24  16  71 E10       30.03S WCI  14
$$

  *****  WEATHER ACROSS SOUTH DAKOTA  *****

CITY           SKY/WX    TMP DP  RH WIND       PRES   REMARKS
SIOUX FALLS    LGT SNOW  31  29  92 E5        29.81S FOG
BROOKINGS      NOT AVBL
WATERTOWN      LGT SNOW  27  24  89 NE10      29.86R FOG     WCI  17
HURON          CLOUDY    32  30  92 NW3       29.83R
SISSETON         N/A     23  19  85 NE16      29.97R WCI  10
ABERDEEN       LGT SNOW  23  19  85 NE22G33   29.96R FOG     WCI   8
MITCHELL       CLOUDY    34  33  96 NW5       29.84R
PIERRE         CLOUDY    29  25  85 NW31G41   29.93R WCI  13
MOBRIDGE       CLOUDY    22  17  81 N24G32    30.01R WCI   5
RAPID CITY     CLOUDY    27  21  78 N31G40    30.07R WCI  10
$$

  *****  SOME WEATHER IN NEARBY STATES *****

CITY           SKY/WX    TMP DP  RH WIND       PRES   REMARKS
GLASGOW MT     CLOUDY    21  15  78 NE8       30.21R WCI  11
GREAT FALLS MT LGT SNOW  28  27  93 S6        30.14S FOG     WCI  22
CHEYENNE WY    LGT SNOW  23  18  81 N18       30.06S WCI   9
SCOTTSBLUFF NE CLOUDY    31  25  78 W13       30.09R WCI  21
OMAHA NE       LGT RAIN  35  33  92 SE8       29.84S
DES MOINES IA  CLOUDY    33  16  49 SE6       29.96F
DAVENPORT IA   PTCLDY    16  12  84 SE6       30.12F WCI   7
CHICAGO IL     CLOUDY    21  17  84 SW6       30.17F WCI  13
EAU CLAIRE WI  CLOUDY    22  15  75 E5        30.08F WCI  16
LA CROSSE WI   MOCLDY    19  13  77 SE6       30.11F WCI  11
$$

  *****  SOME NATIONAL WEATHER *****

CITY           SKY/WX    TMP DP  RH WIND       PRES   REMARKS
LA GUARDIA NY  CLOUDY    51  29  42 NW12      30.17R
RALEIGH NC     HVY RAIN  49  46  90 N6        29.97F VSB 1
ATLANTA GA     LGT RAIN  48  35  60 N3        29.97F
NEW ORLEANS LA CLEAR     46  32  58 N5        30.23S
OKLAHOMA CITY  MOCLDY    42  27  55 S9        29.96F
ALBUQUERQUE NM PTCLDY    40   8  26 N9        30.30F
SALT LAKE CITY PTCLDY    43  28  55 S8        30.31S
LOS ANGELES CA CLEAR     62  48  60 VRB5      30.28S
BOISE ID       MOCLDY    49  40  71 N5        30.29R
SEATTLE WA     CLOUDY    56  53  90 S14       30.19R
$$

*** WEATHER ACROSS MANITOBA...SASKATCHEWAN AND ONTARIO ***
                ***ONTARIO***

CITY           SKY/WX    TMP DP  RH WIND       PRES   REMARKS
GERALDTON      CLOUDY     1  -2  85 NW2       30.10R
THUNDER BAY    CLOUDY    12  10  92 W2        30.12R
SIOUX LOOKOUT  FLURRIES   3  -4  72 N5        30.13R WCI  -6
TORONTO        CLOUDY    34  25  69 W8        30.19S
BIG TROUT LK   CLEAR    -22 -27  76 W9        30.14R WCI -42
PICKLE LAKE    NOT AVBL
DRYDEN         CLOUDY     5   1  85 NE3       30.11R
KENORA         FLURRIES   3   0  85 N6        30.14R WCI  -8
$$
                *** MANITOBA***

CITY           SKY/WX    TMP DP  RH WIND       PRES   REMARKS
BRANDON        MOCLDY    -2  -8  78 CALM      30.30R
DAUPHIN        CLEAR    -15 -20  76 W7        30.37R WCI -31
ISLAND LAKE    CLEAR    -18 -26  69 NW5       30.23R WCI -31
PILOT MOUND      N/A     -2  -6  84 N13G18      N/A  WCI -21
THE PAS        CLEAR    -15 -20  76 NW9       30.36R WCI -33
THOMPSON       CLEAR    -24 -31  69 W5        30.28R WCI -38
WINNIPEG       CLEAR     -9 -15  77 N9        30.30R WCI -27
LYNN LAKE      CLEAR    -22 -27  76 NW10      30.27R WCI -44
CHURCHILL      CRYSTALS -15 -20  76 NW14      30.15R DRFTSNOWWCI -38
GILLAM         CLEAR    -22 -27  76 W7        30.21  WCI -39
$$
                ***SASKATCHEWAN***

CITY           SKY/WX    TMP DP  RH WIND       PRES   REMARKS
ESTEVAN        LGT SNOW  10   7  85 N7        30.21R WCI   0
KINDERSLEY     CLOUDY    10   7  85 NE5       30.23R WCI   2
LLOYDMINSTER   FLURRIES   3   0  85 E3        30.25R
PRINCE ALBERT  CRYSTALS -18 -22  83 CALM      30.37R
REGINA         FLURRIES   7   1  78 N7        30.26  WCI  -5
YORKTON        PTCLDY    -4  -9  77 N6        30.29R WCI -16


USA.gov is the U.S. government's official web portal to all federal, state and local government web resources and services.